FW5488 Weather Reports


time (UTC)temp
C
wind
direction
speed
KPH
gust
KPH
rain 1hr
cm
rain 24hr
cm
rain mn
cm
humidity
%
barometer
mb
20260506233107 21 120 4.8 14.5 0.00 0.00 0.00 55 1015.9
20260506232556 21 121 3.2 12.9 0.00 0.00 0.00 54 1015.8
20260506232056 22 170 4.8 12.9 0.00 0.00 0.00 54 1015.8
20260506231556 22 104 3.2 9.7 0.00 0.00 0.00 54 1015.8
20260506231056 22 129 3.2 12.9 0.00 0.00 0.00 54 1015.8
20260506230554 22 99 1.6 11.3 0.00 0.00 0.00 53 1016.0
20260506230056 22 120 1.6 11.3 0.00 0.00 0.00 53 1016.0
20260506225559 22 260 3.2 9.7 0.00 0.00 0.00 52 1016.0
20260506225055 22 131 1.6 9.7 0.00 0.00 0.00 53 1016.0
20260506224554 22 121 3.2 9.7 0.00 0.00 0.00 53 1016.0
20260506224053 22 207 1.6 11.3 0.00 0.00 0.00 55 1016.1
20260506223553 22 131 4.8 11.3 0.00 0.00 0.00 54 1016.2
20260506223105 22 128 3.2 11.3 0.00 0.00 0.00 54 1016.3
20260506222552 22 126 3.2 12.9 0.00 0.00 0.00 53 1016.3
20260506222054 22 142 3.2 12.9 0.00 0.00 0.00 54 1016.4
20260506221552 22 107 4.8 11.3 0.00 0.00 0.00 54 1016.4
20260506221053 22 103 3.2 12.9 0.00 0.00 0.00 53 1016.5
20260506220550 22 114 4.8 12.9 0.00 0.00 0.00 53 1016.6
20260506220049 22 187 3.2 12.9 0.00 0.00 0.00 53 1016.6
20260506215549 22 205 4.8 12.9 0.00 0.00 0.00 52 1016.6
20260506215047 22 109 1.6 8.0 0.00 0.00 0.00 54 1016.7
20260506214546 22 177 1.6 14.5 0.00 0.00 0.00 54 1016.8
20260506214047 21 139 4.8 14.5 0.00 0.00 0.00 54 1016.8
20260506213550 22 101 4.8 9.7 0.00 0.00 0.00 54 1016.9
20260506213044 22 68 4.8 9.7 0.00 0.00 0.00 53 1016.9
20260506212544 21 146 3.2 14.5 0.00 0.00 0.00 55 1017.0
20260506212046 21 118 3.2 14.5 0.00 0.00 0.00 55 1017.0
20260506211545 21 142 4.8 12.9 0.00 0.00 0.00 54 1017.1
20260506211043 21 128 6.4 11.3 0.00 0.00 0.00 54 1017.1
20260506210542 21 115 1.6 11.3 0.00 0.00 0.00 54 1017.2
20260506210042 21 157 1.6 11.3 0.00 0.00 0.00 53 1017.2
20260506205541 22 142 1.6 11.3 0.00 0.00 0.00 54 1017.2
20260506205042 22 110 3.2 11.3 0.00 0.00 0.00 52 1017.2
20260506204540 22 172 1.6 11.3 0.00 0.00 0.00 53 1017.2
20260506204038 21 215 1.6 12.9 0.00 0.00 0.00 55 1017.3
20260506203538 21 140 1.6 8.0 0.00 0.00 0.00 56 1017.3
20260506203043 21 115 1.6 11.3 0.00 0.00 0.00 54 1017.4
20260506202539 21 105 4.8 12.9 0.00 0.00 0.00 56 1017.5
20260506202036 20 92 4.8 12.9 0.00 0.00 0.00 56 1017.5
20260506201536 20 117 6.4 14.5 0.00 0.00 0.00 56 1017.6
20260506201038 21 109 1.6 8.0 0.00 0.00 0.00 56 1017.6
20260506200534 20 104 4.8 11.3 0.00 0.00 0.00 56 1017.7
20260506200047 20 76 1.6 11.3 0.00 0.00 0.00 56 1017.7
20260506195535 20 179 3.2 9.7 0.00 0.00 0.00 57 1017.7
20260506195034 20 243 1.6 8.0 0.00 0.00 0.00 57 1017.8
20260506194534 20 241 3.2 9.7 0.00 0.00 0.00 56 1017.8
20260506194033 20 114 3.2 9.7 0.00 0.00 0.00 57 1017.8
20260506193535 20 116 1.6 8.0 0.00 0.00 0.00 58 1017.9
20260506193033 20 108 0.0 9.7 0.00 0.00 0.00 57 1018.0
20260506192532 20 207 4.8 11.3 0.00 0.00 0.00 58 1018.0
20260506192032 20 121 4.8 12.9 0.00 0.00 0.00 57 1018.1
20260506191534 20 197 3.2 8.0 0.00 0.00 0.00 58 1018.1
20260506191031 20 121 3.2 8.0 0.00 0.00 0.00 58 1018.2
20260506190531 19 93 3.2 9.7 0.00 0.00 0.00 59 1018.3
20260506190034 19 122 3.2 9.7 0.00 0.00 0.00 59 1018.3
20260506185532 18 108 3.2 11.3 0.00 0.00 0.00 60 1018.3
20260506185034 19 121 4.8 11.3 0.00 0.00 0.00 59 1018.3
20260506184532 19 78 4.8 9.7 0.00 0.00 0.00 59 1018.3
20260506184032 19 177 1.6 6.4 0.00 0.00 0.00 58 1018.3
20260506183531 19 146 1.6 11.3 0.00 0.00 0.00 61 1018.3
20260506183030 18 102 4.8 11.3 0.00 0.00 0.00 60 1018.3
20260506182529 18 210 4.8 11.3 0.00 0.00 0.00 59 1018.3
20260506182028 18 134 1.6 14.5 0.00 0.00 0.00 62 1018.4
20260506181532 18 212 4.8 17.7 0.00 0.00 0.00 61 1018.4
20260506181028 18 201 1.6 8.0 0.00 0.00 0.00 62 1018.4
20260506180529 18 134 1.6 8.0 0.00 0.00 0.00 62 1018.4
20260506180032 18 79 1.6 8.0 0.00 0.00 0.00 61 1018.4
20260506175522 18 162 0.0 11.3 0.00 0.00 0.00 62 1018.5
20260506175020 18 115 3.2 11.3 0.00 0.00 0.00 63 1018.5
20260506174520 17 103 1.6 8.0 0.00 0.00 0.00 62 1018.4
20260506174019 17 120 0.0 9.7 0.00 0.00 0.00 63 1018.5
20260506173519 17 124 1.6 8.0 0.00 0.00 0.00 64 1018.4
20260506173017 17 131 1.6 8.0 0.00 0.00 0.00 65 1018.4
20260506172517 17 142 3.2 8.0 0.00 0.00 0.00 64 1018.4
20260506172021 17 90 0.0 9.7 0.00 0.00 0.00 64 1018.4
20260506171533 17 114 3.2 9.7 0.00 0.00 0.00 65 1018.4
20260506171015 16 132 3.2 9.7 0.00 0.00 0.00 66 1018.4
20260506170514 16 197 3.2 9.7 0.00 0.00 0.00 67 1018.4
20260506170015 16 134 3.2 9.7 0.00 0.00 0.00 67 1018.3
20260506165514 16 107 1.6 6.4 0.00 0.00 0.00 67 1018.4
20260506165014 16 115 3.2 8.0 0.00 0.00 0.00 66 1018.4
20260506164513 16 238 1.6 8.0 0.00 0.00 0.00 66 1018.3
20260506164012 16 225 1.6 8.0 0.00 0.00 0.00 67 1018.3
20260506163512 16 224 3.2 8.0 0.00 0.00 0.00 67 1018.3
20260506163019 15 234 0.0 4.8 0.00 0.00 0.00 68 1018.3
20260506162509 15 128 1.6 6.4 0.00 0.00 0.00 68 1018.3
20260506162011 15 130 1.6 6.4 0.00 0.00 0.00 69 1018.3
20260506161516 15 113 0.0 4.8 0.00 0.00 0.00 70 1018.3
20260506161006 15 128 1.6 4.8 0.00 0.00 0.00 70 1018.3
20260506160505 14 82 1.6 4.8 0.00 0.00 0.00 70 1018.4
20260506160009 14 95 1.6 4.8 0.00 0.00 0.00 71 1018.4
20260506155506 14 111 0.0 4.8 0.00 0.00 0.00 72 1018.4
20260506155002 14 128 1.6 4.8 0.00 0.00 0.00 72 1018.4
20260506154502 14 229 1.6 4.8 0.00 0.00 0.00 73 1018.3
20260506154002 13 114 1.6 4.8 0.00 0.00 0.00 73 1018.4
20260506153503 13 99 1.6 4.8 0.00 0.00 0.00 72 1018.3
20260506153003 14 128 1.6 4.8 0.00 0.00 0.00 71 1018.3
20260506152501 14 60 0.0 3.2 0.00 0.00 0.00 73 1018.4
20260506152100 13 60 0.0 3.2 0.00 0.00 0.00 73 1018.3
20260506151600 13 87 0.0 3.2 0.00 0.00 0.00 74 1018.4
20260506151059 13 102 0.0 3.2 0.00 0.00 0.00 74 1018.3
20260506150558 13 104 1.6 4.8 0.00 0.00 0.00 74 1018.3
20260506145602 13 131 0.0 4.8 0.00 0.00 0.00 76 1018.3
20260506145057 13 100 0.0 4.8 0.00 0.00 0.00 77 1018.4
20260506144558 13 100 0.0 4.8 0.00 0.00 0.00 76 1018.4
20260506144057 13 18 0.0 3.2 0.00 0.00 0.00 76 1018.4
20260506143556 13 19 0.0 0.0 0.00 0.00 0.00 77 1018.4
20260506143054 12 19 0.0 1.6 0.00 0.00 0.00 78 1018.5
20260506142552 12 19 0.0 1.6 0.00 0.00 0.00 80 1018.4
20260506142053 11 18 0.0 0.0 0.00 0.00 0.00 84 1018.3
20260506141550 11 19 0.0 0.0 0.00 0.00 0.00 84 1018.3
20260506141049 10 18 0.0 0.0 0.00 0.00 0.00 84 1018.2
20260506140549 10 18 0.0 0.0 0.00 0.00 0.00 87 1018.2
20260506135546 9 18 0.0 0.0 0.00 0.00 0.00 87 1018.1
20260506135044 8 18 0.0 1.6 0.00 0.00 0.00 88 1018.0
20260506134610 8 19 0.0 1.6 0.00 0.00 0.00 88 1018.0
20260506134041 8 19 0.0 1.6 0.00 0.00 0.00 88 1017.9
20260506133541 8 19 0.0 1.6 0.00 0.00 0.00 88 1017.8
20260506133041 8 18 0.0 1.6 0.00 0.00 0.00 88 1017.7
20260506132541 8 18 0.0 3.2 0.00 0.00 0.00 88 1017.8
20260506132042 8 19 0.0 3.2 0.00 0.00 0.00 87 1017.8
20260506131557 8 18 0.0 1.6 0.00 0.00 0.00 87 1017.8
20260506131040 8 19 0.0 1.6 0.00 0.00 0.00 88 1017.8
20260506130539 8 19 0.0 1.6 0.00 0.00 0.00 87 1017.7
20260506125539 8 19 0.0 0.0 0.00 0.00 0.00 87 1017.6
20260506125039 8 18 0.0 0.0 0.00 0.00 0.00 86 1017.5
20260506124539 8 19 0.0 0.0 0.00 0.00 0.00 86 1017.5
20260506124040 8 19 0.0 0.0 0.00 0.00 0.00 86 1017.5
20260506123539 8 18 0.0 0.0 0.00 0.00 0.00 86 1017.4
20260506123044 8 19 0.0 0.0 0.00 0.00 0.00 86 1017.5
20260506122539 8 19 0.0 0.0 0.00 0.00 0.00 86 1017.3
20260506122039 8 18 0.0 0.0 0.00 0.00 0.00 86 1017.3
20260506121539 8 18 0.0 0.0 0.00 0.00 0.00 86 1017.4
20260506121039 8 19 0.0 1.6 0.00 0.00 0.00 85 1017.3
20260506120538 8 19 0.0 1.6 0.00 0.00 0.00 85 1017.3
20260506115539 8 19 0.0 1.6 0.00 0.00 0.00 84 1017.2
20260506115038 8 18 1.6 1.6 0.00 0.00 0.00 84 1017.2
20260506114546 8 18 0.0 1.6 0.00 0.00 0.00 84 1017.2
20260506114039 8 18 0.0 1.6 0.00 0.00 0.00 84 1017.1
20260506113539 8 18 0.0 1.6 0.00 0.00 0.00 84 1017.1
20260506113040 8 18 0.0 1.6 0.00 0.00 0.00 84 1017.1
20260506112538 8 19 0.0 1.6 0.00 0.00 0.00 85 1017.1
20260506112037 8 19 0.0 1.6 0.00 0.00 0.00 85 1017.0
20260506111537 8 19 0.0 1.6 0.00 0.00 0.00 84 1017.0
20260506111037 8 18 0.0 1.6 0.00 0.00 0.00 83 1017.1
20260506110537 8 18 1.6 3.2 0.00 0.00 0.00 83 1017.1
20260506105535 8 19 1.6 3.2 0.00 0.00 0.00 83 1017.1
20260506105036 8 19 1.6 3.2 0.00 0.00 0.00 83 1017.1
20260506104534 8 18 1.6 3.2 0.00 0.00 0.00 83 1017.1
20260506104034 9 19 0.0 3.2 0.00 0.00 0.00 83 1017.1
20260506103534 9 18 1.6 3.2 0.00 0.00 0.00 83 1017.1
20260506103034 8 19 1.6 3.2 0.00 0.00 0.00 83 1017.1
20260506102534 8 19 0.0 3.2 0.00 0.00 0.00 83 1017.1
20260506102037 8 19 1.6 3.2 0.00 0.00 0.00 83 1017.0
20260506101534 8 19 1.6 1.6 0.00 0.00 0.00 83 1017.0
20260506101034 8 18 0.0 1.6 0.00 0.00 0.00 83 1017.1
20260506100533 9 19 0.0 3.2 0.00 0.00 0.00 84 1017.1
20260506095539 9 18 1.6 3.2 0.00 0.00 0.00 84 1017.1
20260506095042 9 77 1.6 3.2 0.00 0.00 0.00 84 1017.2
20260506094537 8 79 1.6 3.2 0.00 0.00 0.00 84 1017.2
20260506094039 8 80 1.6 3.2 0.00 0.00 0.00 83 1017.2
20260506093542 9 81 1.6 3.2 0.00 0.00 0.00 83 1017.3
20260506093037 9 82 0.0 1.6 0.00 0.00 0.00 83 1017.3
20260506092537 9 82 0.0 1.6 0.00 0.00 0.00 83 1017.3
20260506092041 9 82 0.0 1.6 0.00 0.00 0.00 83 1017.3
20260506091537 9 82 1.6 3.2 0.00 0.00 0.00 84 1017.3
20260506091037 9 82 1.6 3.2 0.00 0.00 0.00 84 1017.3
20260506090536 9 98 0.0 1.6 0.00 0.00 0.00 84 1017.4
20260506085538 9 98 0.0 1.6 0.00 0.00 0.00 84 1017.6
20260506085037 9 98 0.0 1.6 0.00 0.00 0.00 84 1017.6
20260506084537 9 97 0.0 1.6 0.00 0.00 0.00 84 1017.7
20260506084037 9 97 0.0 1.6 0.00 0.00 0.00 84 1017.7
20260506083537 9 98 0.0 1.6 0.00 0.00 0.00 85 1017.8
20260506083042 9 97 0.0 1.6 0.00 0.00 0.00 84 1017.8
20260506082536 9 98 0.0 1.6 0.00 0.00 0.00 85 1017.7
20260506082036 9 97 0.0 1.6 0.00 0.00 0.00 84 1017.7
20260506081543 9 97 0.0 1.6 0.00 0.00 0.00 84 1017.7
20260506081035 9 97 0.0 1.6 0.00 0.00 0.00 84 1017.7
20260506080535 9 98 0.0 1.6 0.00 0.00 0.00 84 1017.8
20260506073034 10 98 0.0 1.6 0.00 0.00 0.00 82 1017.8
20260506072532 10 97 0.0 0.0 0.00 0.00 0.00 81 1017.8
20260506072033 10 98 0.0 1.6 0.00 0.00 0.00 81 1017.8
20260506071533 10 98 0.0 1.6 0.00 0.00 0.00 81 1017.8
20260506071030 10 98 0.0 1.6 0.00 0.00 0.00 80 1017.7
20260506070530 10 98 0.0 1.6 0.00 0.00 0.00 80 1017.7
20260506062024 10 97 0.0 1.6 0.00 0.00 0.00 81 1017.1
20260506061533 10 97 0.0 1.6 0.00 0.00 0.00 81 1017.0
20260506061023 10 97 0.0 1.6 0.00 0.00 0.00 81 1017.1
20260506060523 10 98 0.0 1.6 0.00 0.00 0.00 80 1017.1
20260506051024 10 98 0.0 1.6 0.00 0.00 0.00 80 1016.9
20260506050521 10 97 0.0 1.6 0.00 0.00 0.00 80 1016.8
20260506045019 11 97 0.0 1.6 0.00 0.00 0.00 79 1016.6
20260506044520 11 98 0.0 1.6 0.00 0.00 0.00 78 1016.6
20260506044022 11 97 0.0 3.2 0.00 0.00 0.00 78 1016.5
20260506043517 11 98 0.0 3.2 0.00 0.00 0.00 78 1016.4
20260506043016 11 98 0.0 3.2 0.00 0.00 0.00 78 1016.4
20260506042516 11 97 0.0 3.2 0.00 0.00 0.00 78 1016.3
20260506042014 11 97 0.0 3.2 0.00 0.00 0.00 78 1016.2
20260506041514 11 99 0.0 1.6 0.00 0.00 0.00 78 1016.1
20260506041013 11 99 0.0 1.6 0.00 0.00 0.00 77 1016.0
20260506040517 11 99 0.0 1.6 0.00 0.00 0.00 77 1015.9
20260506035515 11 98 0.0 1.6 0.00 0.00 0.00 75 1015.9
20260506035014 11 99 0.0 1.6 0.00 0.00 0.00 75 1015.9
20260506034514 11 98 0.0 0.0 0.00 0.00 0.00 75 1015.8
20260506034012 12 99 0.0 0.0 0.00 0.00 0.00 74 1015.7
20260506033512 12 99 0.0 1.6 0.00 0.00 0.00 74 1015.6
20260506033015 12 98 0.0 3.2 0.00 0.00 0.00 72 1015.6
20260506032512 12 98 0.0 3.2 0.00 0.00 0.00 72 1015.6
20260506032011 12 112 0.0 3.2 0.00 0.00 0.00 73 1015.5
20260506031510 12 104 0.0 1.6 0.00 0.00 0.00 72 1015.5
20260506031009 12 105 0.0 1.6 0.00 0.00 0.00 71 1015.4
20260506030507 12 105 0.0 1.6 0.00 0.00 0.00 71 1015.2
20260506025508 13 104 0.0 1.6 0.00 0.00 0.00 70 1015.1
20260506025006 13 105 0.0 1.6 0.00 0.00 0.00 70 1015.1
20260506024517 13 104 0.0 3.2 0.00 0.00 0.00 70 1014.9
20260506024007 13 105 0.0 3.2 0.00 0.00 0.00 70 1014.9
20260506023506 13 105 0.0 1.6 0.00 0.00 0.00 69 1014.9
20260506023006 13 105 0.0 1.6 0.00 0.00 0.00 69 1014.8
20260506022504 13 105 0.0 3.2 0.00 0.00 0.00 69 1014.8
20260506022007 13 104 0.0 3.2 0.00 0.00 0.00 69 1014.8
20260506021509 13 121 0.0 3.2 0.00 0.00 0.00 68 1014.6
20260506021005 13 121 0.0 4.8 0.00 0.00 0.00 68 1014.6
20260506020504 13 83 1.6 4.8 0.00 0.00 0.00 68 1014.5
20260506015508 13 119 1.6 4.8 0.00 0.00 0.00 67 1014.6
20260506015005 13 113 0.0 4.8 0.00 0.00 0.00 68 1014.6
20260506014511 13 110 0.0 6.4 0.00 0.00 0.00 68 1014.6
20260506014005 13 110 3.2 6.4 0.00 0.00 0.00 68 1014.6
20260506013505 13 120 1.6 6.4 0.00 0.00 0.00 67 1014.5
20260506013005 13 131 0.0 6.4 0.00 0.00 0.00 67 1014.4
20260506012505 13 128 1.6 8.0 0.00 0.00 0.00 67 1014.4
20260506012005 14 98 3.2 8.0 0.00 0.00 0.00 66 1014.4
20260506011504 14 110 0.0 4.8 0.00 0.00 0.00 65 1014.4
20260506011004 14 107 0.0 8.0 0.00 0.00 0.00 64 1014.5
20260506010508 14 113 0.0 8.0 0.00 0.00 0.00 64 1014.5
20260506005505 14 93 1.6 6.4 0.00 0.00 0.00 64 1014.4
20260506005006 14 131 1.6 6.4 0.00 0.00 0.00 63 1014.4
20260506004507 14 108 0.0 6.4 0.00 0.00 0.00 64 1014.4
20260506004005 14 112 1.6 8.0 0.00 0.00 0.00 64 1014.3
20260506003505 15 110 1.6 11.3 0.00 0.00 0.00 63 1014.3
20260506003007 15 96 1.6 11.3 0.00 0.00 0.00 63 1014.3
20260506002504 15 85 1.6 6.4 0.00 0.00 0.00 63 1014.3
20260506002005 15 128 1.6 8.0 0.00 0.00 0.00 62 1014.2
20260506001505 15 103 0.0 8.0 0.00 0.00 0.00 62 1014.3
20260506001004 15 136 1.6 11.3 0.00 0.00 0.00 61 1014.2
20260506000509 15 117 1.6 8.0 0.00 0.00 0.00 58 1014.1
20260505235507 15 123 3.2 8.0 0.00 0.00 0.00 57 1014.2
20260505235004 15 263 3.2 11.3 0.00 0.00 0.00 58 1014.2
20260505234506 16 235 3.2 12.9 0.00 0.00 0.00 57 1014.1
20260505234008 15 259 1.6 8.0 0.00 0.00 0.00 58 1014.1